Location: Unspecified
(0.0000°N, 0.0000°E)
Time: 01:50:59
(UTC+00:00)

Envisat - Pass Details

Date: 25 October 2020
Orbit: 764 x 766 km, 98.1° (Epoch: 25 October)

Event Time Altitude Azimuth Distance (km) Brightness Sun altitude
Rises 05:06:06 0° 26° (NNE) 3,214 6.4 -9.3°
Reaches altitude 10° 05:08:31 10° 34° (NE) 2,291 5.8 -8.7°
Maximum altitude 05:13:13 39° 102° (ESE) 1,130 4.7 -7.5°
Drops below altitude 10° 05:17:55 10° 170° (S) 2,301 5.8 -6.4°
Sets 05:20:21 0° 178° (S) 3,230 6.4 -5.8°
